{"data":{"norad_id":59794,"intl_designator":"2024-093N","name":"STARLINK-31823","alt_names":[],"object_type":"PAYLOAD","status":"ACTIVE","operator":null,"country":"US","launch_date":"2024-05-18","launch_site_code":"AFETR","launch_vehicle":null,"mission":null,"orbit_class":"UNKNOWN","rcs_meters":null,"size_class":null,"mass_kg":null,"dimensions":null,"purposes":["comms"],"wikipedia_slug":null,"has_3d_model":false,"image_url":null,"decayed_at":null,"tle_current":{"epoch":"2026-05-25T01:06:08.699328Z","epoch_age_seconds":81597,"freshness":"FRESH","line1":"1 59794U 24093N   26145.04593402  .00000616  00000+0  31920-4 0  9998","line2":"2 59794  43.0014 137.6278 0001490 272.7890  87.2791 15.27576336114376","mean_motion":15.27576336,"eccentricity":0.000149,"inclination_deg":43.0014,"raan_deg":137.6278,"arg_perigee_deg":272.789,"mean_anomaly_deg":87.2791,"bstar":3.192e-5,"rev_number":11437,"period_min":94.266974819123,"perigee_km":482.03774903266,"apogee_km":484.08238575874,"semimajor_km":6861.1970673957,"source":"CELESTRAK","updated_at":"2026-05-25T13:38:19.082434Z"}}}